Location: Unspecified
(0.0000°N, 0.0000°E)
Time: 11:53:22
(UTC+01:00)

Cosmos 1954 Rocket - Visible Passes

Search period start: 30 January 2015 00:00
Search period end: 09 February 2015 00:00
Orbit: 754 x 782 km, 74.1° (Epoch: 28 January)

Date Brightness Start Highest point End Pass type
(mag) Time Alt. Az. Time Alt. Az. Time Alt. Az.
30 Jan 4.8 04:58:02 47° E 04:58:02 47° E 05:02:37 10° SSE visible
31 Jan 6.4 04:22:35 19° ESE 04:22:35 19° ESE 04:24:40 10° SE visible
31 Jan 5.4 06:02:55 19° WSW 06:02:55 19° WSW 06:06:02 10° SSW visible
01 Feb 5.2 05:27:24 27° SSW 05:27:24 27° SSW 05:30:09 10° S visible
02 Feb 6.0 04:51:48 21° S 04:51:48 21° S 04:53:29 10° S visible
03 Feb 6.9 04:16:09 10° SSE 04:16:09 10° SSE 04:16:12 10° SSE visible
